Volver al catálogo

FENGYUN 1C DEB

ActivoPO
NORAD 30116·DEBRIS·🇨🇳 China

Lanzado May 10, 1999 desde Taiyuan Satellite Launch Center

Loading…

Próximos Pases (próximas 24 horas)

TLE

ActualizadoSource: Space-Track

Época: Sep 14, 2026, 06:28 UTC

1 30116U 99025RV  26257.26947829  .00002372  00000-0  91754-3 0  9998
2 30116  99.3891 354.9482 0019317 266.1634 117.0185 14.31074792 14428

Sigue FENGYUN 1C DEB en tiempo real con AllMySat

Download on the App Store